FW4407 Weather Reports


Display with metric or nautical units.
time (UTC)temp
F
wind
direction
speed
MPH
gust
MPH
rain 1hr
in
rain 24hr
in
rain mn
in
humidity
%
barometer
mb
20260510170031 70 330 0.0 2.0 0.00 0.00 0.00 58 1013.5
20260510165039 71 347 1.0 5.0 0.00 0.00 0.00 58 1013.5
20260510164024 71 316 0.0 2.0 0.00 0.00 0.00 58 1013.4
20260510163029 71 0.0 0.0 0.00 0.00 0.00 59 1013.4
20260510162017 72 0.0 0.0 0.00 0.00 0.00 58 1013.6
20260510161022 72 0.0 0.0 0.00 0.00 0.00 59 1013.8
20260510160027 73 0.0 0.0 0.00 0.00 0.00 58 1014.0
20260510155035 73 289 0.0 2.0 0.00 0.00 0.00 58 1014.0
20260510154020 74 252 1.0 5.0 0.00 0.00 0.00 57 1014.2
20260510153025 74 192 0.0 2.0 0.00 0.00 0.00 56 1014.1
20260510152030 74 226 1.0 5.0 0.00 0.00 0.00 55 1014.1
20260510151018 74 230 1.0 8.0 0.00 0.00 0.00 54 1014.1
20260510150023 74 260 1.0 5.0 0.00 0.00 0.00 55 1014.1
20260510145028 74 254 1.0 5.0 0.00 0.00 0.00 56 1014.2
20260510144036 74 291 2.0 8.0 0.00 0.00 0.00 55 1014.5
20260510143021 74 248 2.0 8.0 0.00 0.00 0.00 55 1014.6
20260510142029 74 258 1.0 8.0 0.00 0.00 0.00 56 1014.2
20260510141038 74 269 2.0 8.0 0.00 0.00 0.00 57 1014.1
20260510140019 75 263 2.0 8.0 0.00 0.00 0.00 57 1013.9
20260510135044 75 236 2.0 10.0 0.00 0.00 0.00 56 1014.1
20260510134029 75 256 1.0 5.0 0.00 0.00 0.00 56 1013.8
20260510133037 75 211 1.0 5.0 0.00 0.00 0.00 56 1014.0
20260510132044 75 217 1.0 5.0 0.00 0.00 0.00 56 1014.2
20260510131030 76 223 1.0 5.0 0.00 0.00 0.00 56 1013.8
20260510130035 76 254 1.0 8.0 0.00 0.00 0.00 56 1014.9
20260510125019 77 274 1.0 8.0 0.00 0.00 0.00 56 1014.9
20260510124025 78 272 2.0 10.0 0.00 0.00 0.00 56 1015.3
20260510123030 79 248 1.0 8.0 0.00 0.00 0.00 54 1015.3
20260510122020 79 227 3.0 10.0 0.00 0.00 0.00 51 1015.3
20260510121023 80 229 3.0 10.0 0.00 0.00 0.00 50 1015.5
20260510120028 80 260 2.0 10.0 0.00 0.00 0.00 49 1015.5
20260510115016 80 252 2.0 8.0 0.00 0.00 0.00 49 1015.6
20260510114021 80 239 3.0 10.0 0.00 0.00 0.00 50 1015.4
20260510113026 80 222 1.0 8.0 0.00 0.00 0.00 50 1015.4
20260510112031 80 272 1.0 8.0 0.00 0.00 0.00 50 1015.3
20260510111039 79 276 1.0 8.0 0.00 0.00 0.00 49 1015.3
20260510110023 79 234 3.0 10.0 0.00 0.00 0.00 51 1015.4
20260510105028 79 223 2.0 8.0 0.00 0.00 0.00 50 1015.4
20260510104017 79 218 1.0 8.0 0.00 0.00 0.00 49 1015.6
20260510103021 79 228 1.0 5.0 0.00 0.00 0.00 50 1015.6
20260510102026 80 212 1.0 8.0 0.00 0.00 0.00 50 1015.7
20260510101052 80 247 3.0 8.0 0.00 0.00 0.00 49 1016.0
20260510100020 79 259 2.0 10.0 0.00 0.00 0.00 48 1016.0
20260510095024 79 219 3.0 10.0 0.00 0.00 0.00 49 1016.0
20260510094030 79 250 1.0 5.0 0.00 0.00 0.00 50 1016.2
20260510093017 80 240 2.0 10.0 0.00 0.00 0.00 49 1016.0
20260510092043 80 225 2.0 8.0 0.00 0.00 0.00 47 1016.1
20260510091028 79 235 1.0 8.0 0.00 0.00 0.00 47 1016.0
20260510090016 79 225 1.0 5.0 0.00 0.00 0.00 47 1016.2
20260510085021 78 234 2.0 8.0 0.00 0.00 0.00 48 1015.9
20260510084025 78 237 2.0 8.0 0.00 0.00 0.00 49 1016.1
20260510083030 78 264 2.0 8.0 0.00 0.00 0.00 50 1016.2
20260510082019 78 254 1.0 5.0 0.00 0.00 0.00 50 1016.1
20260510081023 77 250 1.0 8.0 0.00 0.00 0.00 49 1015.9
20260510080028 77 268 1.0 5.0 0.00 0.00 0.00 51 1015.9
20260510075017 77 215 2.0 5.0 0.00 0.00 0.00 51 1015.6
20260510074022 76 318 0.0 2.0 0.00 0.00 0.00 53 1015.7
20260510073026 76 305 1.0 2.0 0.00 0.00 0.00 54 1015.6
20260510072031 75 0.0 0.0 0.00 0.00 0.00 53 1015.6
20260510071019 74 250 0.0 5.0 0.00 0.00 0.00 54 1015.6
20260510070044 74 0.0 0.0 0.00 0.00 0.00 56 1015.6
20260510065029 74 334 0.0 2.0 0.00 0.00 0.00 56 1015.5
20260510064018 74 208 0.0 5.0 0.00 0.00 0.00 56 1015.5
20260510063022 74 0.0 0.0 0.00 0.00 0.00 57 1015.6
20260510062027 73 244 0.0 2.0 0.00 0.00 0.00 56 1015.6
20260510061015 72 0.0 0.0 0.00 0.00 0.00 57 1015.5
20260510060020 71 0.0 0.0 0.00 0.00 0.00 59 1015.5
20260510055025 71 0.0 0.0 0.00 0.00 0.00 59 1015.2
20260510054050 70 0.0 0.0 0.00 0.00 0.00 62 1015.2
20260510053018 70 0.0 0.0 0.00 0.00 0.00 60 1015.2
20260510052023 69 0.0 0.0 0.00 0.00 0.00 61 1015.1
20260510051029 68 0.0 0.0 0.00 0.00 0.00 59 1014.8
20260510050016 67 0.0 0.0 0.00 0.00 0.00 61 1014.8
20260510045022 66 0.0 0.0 0.00 0.00 0.00 63 1014.8
20260510044026 65 0.0 0.0 0.00 0.00 0.00 63 1014.9
20260510043031 64 0.0 0.0 0.00 0.00 0.00 64 1014.8
20260510042019 63 0.0 0.0 0.00 0.00 0.00 66 1014.8
20260510041024 62 0.0 0.0 0.00 0.00 0.00 69 1014.4
20260510040030 62 0.0 0.0 0.00 0.00 0.00 70 1014.2
20260510035017 62 0.0 0.0 0.00 0.00 0.00 70 1014.2
20260510034023 62 0.0 0.0 0.00 0.00 0.00 70 1014.2
20260510033028 62 114 0.0 5.0 0.00 0.00 0.00 70 1014.1
20260510032016 62 0.0 0.0 0.00 0.00 0.00 70 1014.0
20260510031020 62 0.0 0.0 0.00 0.00 0.00 71 1014.2
20260510030025 62 0.0 0.0 0.00 0.00 0.00 71 1014.2
20260510025030 62 0.0 0.0 0.00 0.00 0.00 70 1013.9
20260510024018 62 0.0 0.0 0.00 0.00 0.00 70 1013.9
20260510023023 62 0.0 0.0 0.00 0.00 0.00 69 1013.9
20260510022049 62 0.0 0.0 0.00 0.00 0.00 70 1013.9
20260510021016 62 0.0 0.0 0.00 0.00 0.00 68 1013.9
20260510020041 62 0.0 0.0 0.00 0.00 0.00 68 1013.8
20260510015047 62 0.0 0.0 0.00 0.00 0.00 68 1013.9
20260510014031 62 0.0 0.0 0.00 0.00 0.00 68 1013.9
20260510013020 62 0.0 0.0 0.00 0.00 0.00 68 1013.9
20260510012024 62 0.0 0.0 0.00 0.00 0.00 68 1013.9
20260510011049 62 0.0 0.0 0.00 0.00 0.00 68 1013.8
20260510010017 63 0.0 0.0 0.00 0.00 0.00 68 1013.8
20260510005022 62 0.0 0.0 0.00 0.00 0.00 68 1013.7
20260510004027 62 0.0 0.0 0.00 0.00 0.00 68 1013.6
20260510003015 62 0.0 0.0 0.00 0.00 0.00 69 1013.8
20260510002020 63 0.0 0.0 0.00 0.00 0.00 68 1013.9
20260510001025 63 0.0 0.0 0.00 0.00 0.00 68 1013.8
20260510000030 63 0.0 0.0 0.00 0.00 0.00 67 1013.9
20260509235018 63 0.0 0.0 0.00 0.00 0.00 68 1013.9
20260509234023 63 0.0 0.0 0.00 0.00 0.00 67 1013.9
20260509233028 63 0.0 0.0 0.00 0.00 0.00 66 1013.9
20260509232016 63 0.0 0.0 0.00 0.00 0.00 66 1014.0
20260509231021 63 0.0 0.0 0.00 0.00 0.00 65 1014.1
20260509230026 63 0.0 0.0 0.00 0.00 0.00 65 1014.2
20260509225031 64 0.0 0.0 0.00 0.00 0.00 65 1014.2
20260509224019 64 144 0.0 2.0 0.00 0.00 0.00 65 1014.2
20260509223024 64 23 1.0 8.0 0.00 0.00 0.00 66 1014.3
20260509222029 64 0.0 0.0 0.00 0.00 0.00 67 1014.3
20260509221017 64 0.0 0.0 0.00 0.00 0.00 67 1014.4
20260509220022 64 0.0 0.0 0.00 0.00 0.00 67 1014.3
20260509215042 65 0.0 0.0 0.00 0.00 0.00 66 1014.3
20260509214027 65 0.0 0.0 0.00 0.00 0.00 66 1014.4
20260509213035 65 0.0 0.0 0.00 0.00 0.00 65 1014.2
20260509212020 65 0.0 0.0 0.00 0.00 0.00 65 1014.3
20260509211045 65 0.0 0.0 0.00 0.00 0.00 65 1014.2
20260509210030 65 17 0.0 2.0 0.00 0.00 0.00 65 1014.2
20260509205018 65 0.0 0.0 0.00 0.00 0.00 65 1014.2
20260509204023 65 0.0 0.0 0.00 0.00 0.00 65 1014.2
20260509203028 66 0.0 0.0 0.00 0.00 0.00 65 1014.2
20260509202016 66 0.0 0.0 0.00 0.00 0.00 64 1014.2
20260509201021 66 0.0 0.0 0.00 0.00 0.00 65 1014.2
20260509200026 66 0.0 0.0 0.00 0.00 0.00 65 1014.2
20260509195031 66 0.0 0.0 0.00 0.00 0.00 65 1013.9
20260509194019 66 0.0 0.0 0.00 0.00 0.00 66 1013.9
20260509193024 66 0.0 0.0 0.00 0.00 0.00 65 1014.1
20260509192029 66 0.0 0.0 0.00 0.00 0.00 65 1014.0
20260509191017 66 0.0 0.0 0.00 0.00 0.00 65 1014.0
20260509190022 67 0.0 0.0 0.00 0.00 0.00 65 1013.8
20260509185047 67 0.0 0.0 0.00 0.00 0.00 65 1014.1
20260509184015 67 0.0 0.0 0.00 0.00 0.00 64 1013.7
20260509183020 67 0.0 0.0 0.00 0.00 0.00 64 1013.7
20260509182025 68 0.0 0.0 0.00 0.00 0.00 63 1013.5
20260509181050 68 0.0 0.0 0.00 0.00 0.00 63 1013.4
20260509180018 68 238 0.0 5.0 0.00 0.00 0.00 62 1013.4
20260509175023 68 335 0.0 5.0 0.00 0.00 0.00 61 1013.3
20260509174028 69 300 0.0 5.0 0.00 0.00 0.00 60 1013.1
20260509173016 69 303 1.0 2.0 0.00 0.00 0.00 59 1013.1
20260509172021 70 287 0.0 5.0 0.00 0.00 0.00 57 1012.9
20260509171026 70 264 0.0 2.0 0.00 0.00 0.00 56 1013.0